STARLINK-5178, 54083

Orbit data source: Space-Track

STARLINK-5178, 54083 is a payload satellite owned by SpaceX/Seattle (US) in LEO that was launched on Thu, 20 Oct 2022 UTC via an FALCON 9 launch vehicle from the Air Force Eastern Test Range (AFETR). Payload-class satellites include a variety of spacecraft equipped with specific instruments for various scientific and technological missions. These include communications satellites like Starlink; space stations such as the ISS; scientific satellites like the Hubble; Earth observation satellites from companies like Planet Labs, Umbra, and HawkEye 360; GPS; miniature CubeSats for education and research; and military/defense satellites.

Loading next visibility...
Identifier
54083, 2022-136AJ
Orbit
LEO
Last TLE update
14 hours ago
Origin
Manufacturer
SpaceX/Seattle
Mission
Operational Commercial Communications
Bus & Motor
STARLINK, Unknown motor
Mass
305 kg wet, ~290 kg dry
Launch date (UTC)
2022-10-20 (3 years ago)
Launch vehicle
FALCON 9
Launch site
Air Force Eastern Test Range (AFETR)
Object type
Payload
Rocket body
Debris
Shape & HBR
Box + 1 Pan, 8.86 m
Radar Cross Section
13.562 m², Large (>1 m²)

Expand to show TLE details & history

TLE from 14 hours ago
0 STARLINK-5178
1 54083U 22136AJ  25181.84832212 -.00000549  00000-0 -16392-4 0  9996
2 54083  53.2188  24.7465 0001357  94.1822 265.9325 15.08835928148968
Epoch: 2025-06-30T20:21Z
TLE epoch observation values (Epoch: 2025-06-30T20:21:35.031Z)
Latitude
-0.00003°
Longitude
160.19828°
Altitude
540.72 km
Speed
7.593 km/s
True Right ascension
01h 38m 59s
True Declination
0° 00' 00"
Sunlit
Object was in daylight at epoch
Visualization orbit readout
Latitude
-36.29048°
Longitude
124.47051°
Altitude
552.165 km
Speed
7.585 km/s
Apparent Right ascension
03h 08m 12s
Apparent Declination
-77° 57' 13"
Sunlit
Object is in full shadow
Visualization observer readout
Local Sidereal Time
22:05:56
Azimuth
165.534° S
Elevation
-35.99°
Doppler factor
1
Orbital elements
Apogee altitude
540.939 km
Perigee altitude
539.062 km
Semi-major axis
6,918.138 km
Eccentricity
0.00014
Inclination
53.2188°
RAAN
24.7465°
Arg. of periapsis
94.1822°
True anomaly
Unknown
Mean anomaly
265.9325°
Eccentric anomaly
Unknown
Mean motion
3.77189 °/min
Orbital period
95.44 mins
BSTAR
-0.000016392
Loading maneuver chart data...
Loading SW <> Apogee altitude chart data...
Loading historical data...
Loading historical data...
Loading historical data...
Loading historical data...
Loading historical data...
Loading historical data...
Loading historical data...

STARLINK-5178 Visibility forecast

Observer location: undefined°, undefined°

Span
Click to sort rows by Start time (UTC) header in descending order
Start Az.
Max El. time (UTC)
Max El. Az.
Max El.
End time (UTC)
End Az.
7 mins2025-07-01 15:35:29.111Z199.071° SSW2025-07-01 15:38:29.111Z144.388° SSE31.747°2025-07-01 15:42:29.111Z64.242° ENE
5 mins2025-07-01 17:16:29.111Z286.205° WNW2025-07-01 17:18:29.111Z340.651° N28.084°2025-07-01 17:21:29.111Z32.984° NE
5 mins2025-07-01 22:17:29.111Z336.877° NNW2025-07-01 22:19:29.111Z32.966° NE32.983°2025-07-01 22:22:29.111Z98.93° ESE
5 mins2025-07-01 23:56:29.111Z277.405° WNW2025-07-01 23:58:29.111Z235.583° WSW25.674°2025-07-02 00:01:29.111Z175.017° S
|